Вернуться в каталог

STARLINK-30229

АктивенСвязьVLEO
NORAD 57461·PAYLOAD·🇺🇸 United States

Запущен Jul 28, 2023 с Cape Canaveral Space Force Station

Loading…

Ближайшие Пролёты (ближайшие 24 часа)

TLE

СвежийSource: CelesTrak SupGP

Эпоха: Sep 15, 2026, 01:37 UTC

1 57461C 23107E   26258.06784722  .00015824  00000+0  57303-3 0  2583
2 57461  43.0040 354.0052 0001803 268.9308  74.8665 15.27576737    10

Отслеживайте STARLINK-30229 в реальном времени с AllMySat

Download on the App Store